User: anonymous   Login
Location: Unspecified
(0.0000°N, 0.0000°E)
Time: 07:50:44
(UTC+01:00)
Language:

Ariane H10 - Orbit

View from above orbital plane
View from above orbital plane
View from above satellite
View from above satellite

Ground track
Ground track

The orbit data is extracted from the following two-line orbital elements,

1 21727U 91067B   15058.08581720  .00000186  00000-0  11504-2 0  9990
2 21727 004.3910 319.9166 7190278 183.9959 352.1441 02.31523557158435
Epoch (UTC): 27 February 2015 02:03:34
Eccentricity: 0.7190278
inclination: 4.3910°
perigee height: 403 km
apogee height: 35112 km
right ascension of ascending node: 319.9166°
argument of perigee: 183.9959°
revolutions per day: 2.31523557
mean anomaly at epoch: 352.1441°
orbit number at epoch: 15843

The dashed part of the orbit path shows where the satellite is in the earth's shadow,  

DLR